Time,TemperatureF,DewpointF,PressureIn,WindDirection,WindDirectionDegrees,WindSpeedMPH,WindSpeedGustMPH,Humidity,HourlyPrecipIn,Conditions,Clouds,dailyrainin,SolarRadiationWatts/m^2,SoftwareType,DateUTC
2013-01-29 00:01:00,23.0,8.0,-100.00,West,259,16.0,21.0,53,0.00,,,0.08,0.000000,,2013-01-29 07:01:00,
2013-01-29 00:32:00,23.0,8.0,-100.00,West,259,16.0,21.0,53,0.00,,,0.08,0.000000,,2013-01-29 07:32:00,
2013-01-29 00:42:00,23.0,8.0,-100.00,West,259,16.0,21.0,53,0.00,,,0.08,0.000000,,2013-01-29 07:42:00,
2013-01-29 00:52:00,23.0,8.0,-100.00,West,259,16.0,21.0,53,0.00,,,0.08,0.000000,,2013-01-29 07:52:00,
2013-01-29 01:01:00,24.0,9.0,-100.00,West,262,15.0,21.0,53,0.00,,,0.08,0.000000,,2013-01-29 08:01:00,
2013-01-29 01:32:00,24.0,9.0,-100.00,West,262,15.0,21.0,53,0.00,,,0.08,0.000000,,2013-01-29 08:32:00,
2013-01-29 01:42:00,24.0,9.0,-100.00,West,262,15.0,21.0,53,0.00,,,0.08,0.000000,,2013-01-29 08:42:00,
2013-01-29 01:52:00,24.0,9.0,-100.00,West,262,15.0,21.0,53,0.00,,,0.08,0.000000,,2013-01-29 08:52:00,
2013-01-29 02:01:00,23.0,9.0,-100.00,West,262,15.0,18.0,54,0.00,,,0.08,0.000000,,2013-01-29 09:01:00,
2013-01-29 02:32:00,23.0,9.0,-100.00,West,262,15.0,18.0,54,0.00,,,0.08,0.000000,,2013-01-29 09:32:00,
2013-01-29 02:42:00,23.0,9.0,-100.00,West,262,15.0,18.0,54,0.00,,,0.08,0.000000,,2013-01-29 09:42:00,
2013-01-29 02:52:00,23.0,9.0,-100.00,West,262,15.0,18.0,54,0.00,,,0.08,0.000000,,2013-01-29 09:52:00,
2013-01-29 03:01:00,24.0,9.0,-100.00,West,259,14.0,20.0,51,0.00,,,0.08,0.000000,,2013-01-29 10:01:00,
2013-01-29 03:22:00,24.0,9.0,-100.00,West,259,14.0,20.0,51,0.00,,,0.08,0.000000,,2013-01-29 10:22:00,
2013-01-29 03:32:00,24.0,9.0,-100.00,West,259,14.0,20.0,51,0.00,,,0.08,0.000000,,2013-01-29 10:32:00,
2013-01-29 03:42:00,24.0,9.0,-100.00,West,259,14.0,20.0,51,0.00,,,0.08,0.000000,,2013-01-29 10:42:00,
2013-01-29 03:52:00,24.0,9.0,-100.00,West,259,14.0,20.0,51,0.00,,,0.08,0.000000,,2013-01-29 10:52:00,
2013-01-29 04:01:00,23.0,8.0,-100.00,West,267,17.0,24.0,51,0.00,,,0.08,0.000000,,2013-01-29 11:01:00,
2013-01-29 04:32:00,23.0,8.0,-100.00,West,267,17.0,24.0,51,0.00,,,0.08,0.000000,,2013-01-29 11:32:00,
2013-01-29 04:42:00,23.0,8.0,-100.00,West,267,17.0,24.0,51,0.00,,,0.08,0.000000,,2013-01-29 11:42:00,
2013-01-29 04:53:00,23.0,8.0,-100.00,West,267,17.0,24.0,51,0.00,,,0.08,0.000000,,2013-01-29 11:53:00,
2013-01-29 05:01:00,22.0,9.0,-100.00,West,265,16.0,24.0,56,0.00,,,0.08,0.000000,,2013-01-29 12:01:00,
2013-01-29 05:33:00,22.0,9.0,-100.00,West,265,16.0,24.0,56,0.00,,,0.08,0.000000,,2013-01-29 12:33:00,
2013-01-29 05:43:00,22.0,9.0,-100.00,West,265,16.0,24.0,56,0.00,,,0.08,0.000000,,2013-01-29 12:43:00,
2013-01-29 05:53:00,22.0,9.0,-100.00,West,265,16.0,24.0,56,0.00,,,0.08,0.000000,,2013-01-29 12:53:00,
2013-01-29 06:01:00,23.0,10.0,-100.00,West,275,16.0,20.0,57,0.00,,,0.08,0.000000,,2013-01-29 13:01:00,
2013-01-29 06:32:00,23.0,10.0,-100.00,West,275,16.0,20.0,57,0.00,,,0.08,0.000000,,2013-01-29 13:32:00,
2013-01-29 06:43:00,23.0,10.0,-100.00,West,275,16.0,20.0,57,0.00,,,0.08,0.000000,,2013-01-29 13:43:00,
2013-01-29 06:52:00,23.0,10.0,-100.00,West,275,16.0,20.0,57,0.00,,,0.08,0.000000,,2013-01-29 13:52:00,
2013-01-29 07:01:00,23.0,10.0,-100.00,West,280,14.0,19.0,57,0.00,,,0.08,0.000000,,2013-01-29 14:01:00,
2013-01-29 07:22:00,23.0,10.0,-100.00,West,280,14.0,19.0,57,0.00,,,0.08,0.000000,,2013-01-29 14:22:00,
2013-01-29 07:33:00,23.0,10.0,-100.00,West,280,14.0,19.0,57,0.00,,,0.08,0.000000,,2013-01-29 14:33:00,
2013-01-29 07:43:00,23.0,10.0,-100.00,West,280,14.0,19.0,57,0.00,,,0.08,0.000000,,2013-01-29 14:43:00,
2013-01-29 07:53:00,23.0,10.0,-100.00,West,280,14.0,19.0,57,0.00,,,0.08,0.000000,,2013-01-29 14:53:00,
2013-01-29 08:01:00,22.0,11.0,-100.00,West,278,15.0,21.0,62,0.00,,,0.08,5.000000,,2013-01-29 15:01:00,
2013-01-29 08:33:00,22.0,11.0,-100.00,West,278,15.0,21.0,62,0.00,,,0.08,5.000000,,2013-01-29 15:33:00,
2013-01-29 08:43:00,22.0,11.0,-100.00,West,278,15.0,21.0,62,0.00,,,0.08,5.000000,,2013-01-29 15:43:00,
2013-01-29 08:53:00,22.0,11.0,-100.00,West,278,15.0,21.0,62,0.00,,,0.08,5.000000,,2013-01-29 15:53:00,
2013-01-29 09:01:00,21.0,14.0,-100.00,West,274,13.0,21.0,73,0.00,,,0.08,49.000000,,2013-01-29 16:01:00,
2013-01-29 09:33:00,21.0,14.0,-100.00,West,274,13.0,21.0,73,0.00,,,0.08,49.000000,,2013-01-29 16:33:00,
2013-01-29 09:43:00,21.0,14.0,-100.00,West,274,13.0,21.0,73,0.00,,,0.08,49.000000,,2013-01-29 16:43:00,
2013-01-29 09:53:00,21.0,14.0,-100.00,West,274,13.0,21.0,73,0.00,,,0.08,49.000000,,2013-01-29 16:53:00,
2013-01-29 10:01:00,22.0,18.0,-100.00,NW,307,13.0,22.0,86,0.00,,,0.08,119.000000,,2013-01-29 17:01:00,
2013-01-29 10:22:00,22.0,18.0,-100.00,NW,307,13.0,22.0,86,0.00,,,0.08,119.000000,,2013-01-29 17:22:00,
2013-01-29 10:33:00,22.0,18.0,-100.00,NW,307,13.0,22.0,86,0.00,,,0.08,119.000000,,2013-01-29 17:33:00,
2013-01-29 10:42:00,22.0,18.0,-100.00,NW,307,13.0,22.0,86,0.00,,,0.08,119.000000,,2013-01-29 17:42:00,
2013-01-29 10:52:00,22.0,18.0,-100.00,NW,307,13.0,22.0,86,0.00,,,0.08,119.000000,,2013-01-29 17:52:00,
2013-01-29 11:01:00,21.0,17.0,-100.00,NW,321,26.0,35.0,86,0.00,,,0.08,219.000000,,2013-01-29 18:01:00,
2013-01-29 11:22:00,21.0,17.0,-100.00,NW,321,26.0,35.0,86,0.00,,,0.08,219.000000,,2013-01-29 18:22:00,
2013-01-29 11:33:00,21.0,17.0,-100.00,NW,321,26.0,35.0,86,0.00,,,0.08,219.000000,,2013-01-29 18:33:00,
2013-01-29 11:42:00,21.0,17.0,-100.00,NW,321,26.0,35.0,86,0.00,,,0.08,219.000000,,2013-01-29 18:42:00,
2013-01-29 11:52:00,21.0,17.0,-100.00,NW,321,26.0,35.0,86,0.00,,,0.08,219.000000,,2013-01-29 18:52:00,
2013-01-29 12:01:00,14.0,11.0,-100.00,NNW,330,20.0,32.0,87,0.00,,,0.08,146.000000,,2013-01-29 19:01:00,
2013-01-29 12:33:00,14.0,11.0,-100.00,NNW,330,20.0,32.0,87,0.00,,,0.08,146.000000,,2013-01-29 19:33:00,
2013-01-29 12:42:00,14.0,11.0,-100.00,NNW,330,20.0,32.0,87,0.00,,,0.08,146.000000,,2013-01-29 19:42:00,
2013-01-29 12:52:00,14.0,11.0,-100.00,NNW,330,20.0,32.0,87,0.00,,,0.08,146.000000,,2013-01-29 19:52:00,
2013-01-29 13:01:00,11.0,6.0,-100.00,NNW,330,22.0,33.0,80,0.00,,,0.04,241.000000,,2013-01-29 20:01:00,
2013-01-29 13:33:00,11.0,6.0,-100.00,NNW,330,22.0,33.0,80,0.00,,,0.04,241.000000,,2013-01-29 20:33:00,
2013-01-29 13:42:00,11.0,6.0,-100.00,NNW,330,22.0,33.0,80,0.00,,,0.04,241.000000,,2013-01-29 20:42:00,
2013-01-29 13:53:00,11.0,6.0,-100.00,NNW,330,22.0,33.0,80,0.00,,,0.04,241.000000,,2013-01-29 20:53:00,
2013-01-29 14:01:00,9.0,3.0,-100.00,NNW,330,21.0,30.0,76,0.00,,,0.01,229.000000,,2013-01-29 21:01:00,
2013-01-29 14:34:00,9.0,3.0,-100.00,NNW,330,21.0,30.0,76,0.00,,,0.01,229.000000,,2013-01-29 21:34:00,
2013-01-29 14:42:00,9.0,3.0,-100.00,NNW,330,21.0,30.0,76,0.00,,,0.01,229.000000,,2013-01-29 21:42:00,
2013-01-29 14:53:00,9.0,3.0,-100.00,NNW,330,21.0,30.0,76,0.00,,,0.01,229.000000,,2013-01-29 21:53:00,
2013-01-29 15:01:00,8.0,3.0,-100.00,NW,321,22.0,32.0,78,0.00,,,0.00,206.000000,,2013-01-29 22:01:00,
2013-01-29 15:33:00,8.0,3.0,-100.00,NW,321,22.0,32.0,78,0.00,,,0.00,206.000000,,2013-01-29 22:33:00,
2013-01-29 15:42:00,8.0,3.0,-100.00,NW,321,22.0,32.0,78,0.00,,,0.00,206.000000,,2013-01-29 22:42:00,
2013-01-29 15:53:00,8.0,3.0,-100.00,NW,321,22.0,32.0,78,0.00,,,0.00,206.000000,,2013-01-29 22:53:00,
2013-01-29 16:01:00,5.0,0.0,-100.00,NNW,327,21.0,32.0,79,0.00,,,0.00,119.000000,,2013-01-29 23:01:00,
2013-01-29 16:33:00,5.0,0.0,-100.00,NNW,327,21.0,32.0,79,0.00,,,0.00,119.000000,,2013-01-29 23:33:00,
2013-01-29 16:42:00,5.0,0.0,-100.00,NNW,327,21.0,32.0,79,0.00,,,0.00,119.000000,,2013-01-29 23:42:00,
2013-01-29 16:53:00,5.0,0.0,-100.00,NNW,327,21.0,32.0,79,0.00,,,0.00,119.000000,,2013-01-29 23:53:00,
2013-01-29 17:01:00,3.0,-2.0,-100.00,NW,326,14.0,30.0,80,0.00,,,0.00,30.000000,,2013-01-30 00:01:00,
2013-01-29 17:33:00,3.0,-2.0,-100.00,NW,326,14.0,30.0,80,0.00,,,0.00,30.000000,,2013-01-30 00:33:00,
2013-01-29 17:43:00,3.0,-2.0,-100.00,NW,326,14.0,30.0,80,0.00,,,0.00,30.000000,,2013-01-30 00:43:00,
2013-01-29 17:53:00,3.0,-2.0,-100.00,NW,326,14.0,30.0,80,0.00,,,0.00,30.000000,,2013-01-30 00:53:00,
2013-01-29 18:01:00,0.0,-5.0,-100.00,NW,319,18.0,28.0,78,0.00,,,0.00,1.000000,,2013-01-30 01:01:00,
2013-01-29 18:22:00,0.0,-5.0,-100.00,NW,319,18.0,28.0,78,0.00,,,0.00,1.000000,,2013-01-30 01:22:00,
2013-01-29 18:32:00,0.0,-5.0,-100.00,NW,319,18.0,28.0,78,0.00,,,0.00,1.000000,,2013-01-30 01:32:00,
2013-01-29 18:43:00,0.0,-5.0,-100.00,NW,319,18.0,28.0,78,0.00,,,0.00,1.000000,,2013-01-30 01:43:00,
2013-01-29 18:52:00,0.0,-5.0,-100.00,NW,319,18.0,28.0,78,0.00,,,0.00,1.000000,,2013-01-30 01:52:00,
2013-01-29 19:01:00,0.0,-5.0,-100.00,NW,315,13.0,23.0,79,0.00,,,0.00,0.000000,,2013-01-30 02:01:00,
2013-01-29 19:22:00,0.0,-5.0,-100.00,NW,315,13.0,23.0,79,0.00,,,0.00,0.000000,,2013-01-30 02:22:00,
2013-01-29 19:33:00,0.0,-5.0,-100.00,NW,315,13.0,23.0,79,0.00,,,0.00,0.000000,,2013-01-30 02:33:00,
2013-01-29 19:42:00,0.0,-5.0,-100.00,NW,315,13.0,23.0,79,0.00,,,0.00,0.000000,,2013-01-30 02:42:00,
2013-01-29 19:53:00,0.0,-5.0,-100.00,NW,315,13.0,23.0,79,0.00,,,0.00,0.000000,,2013-01-30 02:53:00,
2013-01-29 20:01:00,-1.0,-6.0,-100.00,NW,320,11.0,19.0,79,0.00,,,0.00,0.000000,,2013-01-30 03:01:00,
2013-01-29 20:22:00,-1.0,-6.0,-100.00,NW,320,11.0,19.0,79,0.00,,,0.00,0.000000,,2013-01-30 03:22:00,
2013-01-29 20:32:00,-1.0,-6.0,-100.00,NW,320,11.0,19.0,79,0.00,,,0.00,0.000000,,2013-01-30 03:32:00,
2013-01-29 20:42:00,-1.0,-6.0,-100.00,NW,320,11.0,19.0,79,0.00,,,0.00,0.000000,,2013-01-30 03:42:00,
2013-01-29 20:52:00,-1.0,-6.0,-100.00,NW,320,11.0,19.0,79,0.00,,,0.00,0.000000,,2013-01-30 03:52:00,
2013-01-29 21:01:00,-2.0,-7.0,-100.00,NNW,344,6.0,12.0,78,0.00,,,0.00,0.000000,,2013-01-30 04:01:00,
2013-01-29 21:32:00,-2.0,-7.0,-100.00,NNW,344,6.0,12.0,78,0.00,,,0.00,0.000000,,2013-01-30 04:32:00,
2013-01-29 21:42:00,-2.0,-7.0,-100.00,NNW,344,6.0,12.0,78,0.00,,,0.00,0.000000,,2013-01-30 04:42:00,
2013-01-29 21:52:00,-2.0,-7.0,-100.00,NNW,344,6.0,12.0,78,0.00,,,0.00,0.000000,,2013-01-30 04:52:00,
2013-01-29 22:01:00,-3.0,-8.0,-100.00,NW,318,1.0,7.0,77,0.00,,,0.00,0.000000,,2013-01-30 05:01:00,
2013-01-29 22:22:00,-3.0,-8.0,-100.00,NW,318,1.0,7.0,77,0.00,,,0.00,0.000000,,2013-01-30 05:22:00,
2013-01-29 22:32:00,-3.0,-8.0,-100.00,NW,318,1.0,7.0,77,0.00,,,0.00,0.000000,,2013-01-30 05:32:00,
2013-01-29 22:43:00,-3.0,-8.0,-100.00,NW,318,1.0,7.0,77,0.00,,,0.00,0.000000,,2013-01-30 05:43:00,
2013-01-29 22:52:00,-3.0,-8.0,-100.00,NW,318,1.0,7.0,77,0.00,,,0.00,0.000000,,2013-01-30 05:52:00,
2013-01-29 23:01:00,-3.0,-8.0,-100.00,SW,225,8.0,10.0,77,0.00,,,0.00,0.000000,,2013-01-30 06:01:00,
2013-01-29 23:22:00,-3.0,-8.0,-100.00,SW,225,8.0,10.0,77,0.00,,,0.00,0.000000,,2013-01-30 06:22:00,
2013-01-29 23:32:00,-3.0,-8.0,-100.00,SW,225,8.0,10.0,77,0.00,,,0.00,0.000000,,2013-01-30 06:32:00,
2013-01-29 23:42:00,-3.0,-8.0,-100.00,SW,225,8.0,10.0,77,0.00,,,0.00,0.000000,,2013-01-30 06:42:00,
2013-01-29 23:52:00,-3.0,-8.0,-100.00,SW,225,8.0,10.0,77,0.00,,,0.00,0.000000,,2013-01-30 06:52:00,